Corpus Christi, TX

4:25 AM CDT on May 25, 2017 (GMT -0500)
Corpus Christi International

Weather History for KCRP - April, 2012

Change the Weather History Date:

Monday, April 9, 2012

  Actual Average Record
Temperature  
Mean Temperature 74 °F 71 °F  
Max Temperature 84 °F 81 °F 98 °F (1963)
Min Temperature 63 °F 61 °F 40 °F (1973)
Degree Days  
Heating Degree Days 0 1  
Month to date heating degree days 0 9  
Since 1 July heating degree days 611 890  
Cooling Degree Days 9 7  
Month to date cooling degree days 126 57  
Year to date cooling degree days 529 248  
Growing Degree Days 24 (Base 50)    
Moisture  
Dew Point 59 °F    
Average Humidity 65    
Maximum Humidity 87    
Minimum Humidity 43    
Precipitation  
Precipitation 0.00 in 0.05 in 1.89 in (1910)
Month to date precipitation 0.41 0.48  
Year to date precipitation 6.30 5.84  
Snow  
Snow 0.00 in - - ()
Month to date snowfall 0.0  
Since 1 July snowfall 0.0  
Snow Depth 0.00 in    
Sea Level Pressure  
Sea Level Pressure 30.13 in    
Wind  
Wind Speed 7 mph (ESE)    
Max Wind Speed 17 mph    
Max Gust Speed 23 mph    
Visibility 10 miles    
Events      
T = Trace of Precipitation, MM = Missing Value Source: NWS Daily Summary

Daily Weather History Graph

Daily Weather History Graph

Search for Another Location

Airport or City:

Trip Planner

Search our weather history database for the weather conditions in past years. The results will help you decide how hot, cold, wet, or windy it might be!

Date:

Astronomy

Apr. 09, 2012 Rise Set
Actual Time 7:11 AM CDT 7:52 PM CDT
Civil Twilight 6:47 AM CDT 8:15 PM CDT
Nautical Twilight 6:19 AM CDT 8:43 PM CDT
Astronomical Twilight 5:50 AM CDT 9:12 PM CDT
Moon 11:28 PM CDT (4/9) 9:18 AM CDT (4/9)
Length of Visible Light 13h 28m
Length of Day
12h 41m
Waning Gibbous, 88% of the Moon is Illuminated
Apr 9
Waning Gibbous
Apr 13
Last Quarter
Apr 21
New
Apr 29
First Quarter
May 5
Full

Hourly Weather History & Observations

Time (CDT) Temp. Heat Index Dew Point Humidity Pressure Visibility Wind Dir Wind Speed Gust Speed Precip Events Conditions
12:51 AM 70.0 °F - 61.0 °F 73% 30.16 in 10.0 mi ESE 6.9 mph - N/A   Partly Cloudy
1:51 AM 66.9 °F - 60.1 °F 79% 30.15 in 10.0 mi Calm Calm - N/A   Clear
2:51 AM 66.0 °F - 60.1 °F 81% 30.14 in 10.0 mi SSW 3.5 mph - N/A   Partly Cloudy
3:51 AM 66.0 °F - 60.1 °F 81% 30.13 in 10.0 mi Calm Calm - N/A   Partly Cloudy
4:51 AM 64.0 °F - 60.1 °F 87% 30.13 in 10.0 mi NNW 3.5 mph - N/A   Partly Cloudy
5:51 AM 64.0 °F - 59.0 °F 84% 30.12 in 10.0 mi Calm Calm - N/A   Partly Cloudy
6:51 AM 64.0 °F - 60.1 °F 87% 30.13 in 10.0 mi Calm Calm - N/A   Partly Cloudy
7:51 AM 64.0 °F - 61.0 °F 90% 30.14 in 10.0 mi North 3.5 mph - N/A   Partly Cloudy
8:51 AM 72.0 °F - 64.0 °F 76% 30.16 in 9.0 mi NNE 3.5 mph - N/A   Partly Cloudy
9:51 AM 75.9 °F - 63.0 °F 64% 30.16 in 10.0 mi East 6.9 mph - N/A   Partly Cloudy
10:51 AM 79.0 °F - 59.0 °F 50% 30.17 in 10.0 mi Variable 6.9 mph - N/A   Partly Cloudy
11:51 AM 82.0 °F 82.0 °F 57.9 °F 44% 30.17 in 10.0 mi East 13.8 mph 18.4 mph N/A   Scattered Clouds
12:51 PM 82.9 °F 82.8 °F 59.0 °F 44% 30.16 in 10.0 mi East 13.8 mph 20.7 mph N/A   Scattered Clouds
1:51 PM 82.0 °F 82.1 °F 59.0 °F 45% 30.15 in 10.0 mi East 10.4 mph 21.9 mph N/A   Scattered Clouds
2:51 PM 82.9 °F 82.6 °F 57.9 °F 42% 30.14 in 10.0 mi East 15.0 mph - N/A   Scattered Clouds
3:51 PM 82.0 °F 82.1 °F 59.0 °F 45% 30.12 in 10.0 mi East 10.4 mph 20.7 mph N/A   Scattered Clouds
4:51 PM 80.1 °F 80.6 °F 57.9 °F 47% 30.11 in 10.0 mi East 12.7 mph - N/A   Partly Cloudy
5:51 PM 79.0 °F - 57.0 °F 47% 30.09 in 10.0 mi ESE 15.0 mph - N/A   Partly Cloudy
6:51 PM 78.1 °F - 57.9 °F 50% 30.08 in 10.0 mi ESE 15.0 mph - N/A   Partly Cloudy
7:51 PM 75.0 °F - 59.0 °F 57% 30.08 in 10.0 mi ESE 11.5 mph - N/A   Partly Cloudy
8:51 PM 73.0 °F - 59.0 °F 61% 30.09 in 10.0 mi SE 6.9 mph - N/A   Partly Cloudy
9:51 PM 70.0 °F - 59.0 °F 68% 30.09 in 10.0 mi SE 4.6 mph - N/A   Partly Cloudy
10:51 PM 68.0 °F - 59.0 °F 73% 30.08 in 10.0 mi SSE 5.8 mph - N/A   Partly Cloudy
11:51 PM 66.0 °F - 57.9 °F 75% 30.07 in 10.0 mi SSE 5.8 mph - N/A   Partly Cloudy